owner,sensor,date,latitude,longitude,air_temperature,qcFlag 
WAVCIS,ioos:station:WAVCIS:CSI06:1,2015-04-01T00:00:00Z,28.8667,-90.4833,25.0,11111222 
WAVCIS,ioos:station:WAVCIS:CSI06:1,2015-04-01T01:00:00Z,28.8667,-90.4833,24.6,11111222 
WAVCIS,ioos:station:WAVCIS:CSI06:1,2015-04-01T02:00:00Z,28.8667,-90.4833,24.4,11111222 
WAVCIS,ioos:station:WAVCIS:CSI06:1,2015-04-01T03:00:00Z,28.8667,-90.4833,24.2,11111222 
WAVCIS,ioos:station:WAVCIS:CSI06:1,2015-04-01T04:00:00Z,28.8667,-90.4833,24.1,11111222 
WAVCIS,ioos:station:WAVCIS:CSI06:1,2015-04-01T05:00:00Z,28.8667,-90.4833,24.0,11111222 
WAVCIS,ioos:station:WAVCIS:CSI06:1,2015-04-01T06:00:00Z,28.8667,-90.4833,24.0,11111222 
WAVCIS,ioos:station:WAVCIS:CSI06:1,2015-04-01T07:00:00Z,28.8667,-90.4833,23.9,11111222 
WAVCIS,ioos:station:WAVCIS:CSI06:1,2015-04-01T08:00:00Z,28.8667,-90.4833,24.0,11111222 
WAVCIS,ioos:station:WAVCIS:CSI06:1,2015-04-01T09:00:00Z,28.8667,-90.4833,24.0,11111222 
WAVCIS,ioos:station:WAVCIS:CSI06:1,2015-04-01T10:00:00Z,28.8667,-90.4833,24.0,11111222 
WAVCIS,ioos:station:WAVCIS:CSI06:1,2015-04-01T11:00:00Z,28.8667,-90.4833,23.9,11111222 
WAVCIS,ioos:station:WAVCIS:CSI06:1,2015-04-01T12:00:00Z,28.8667,-90.4833,23.5,11111222 
WAVCIS,ioos:station:WAVCIS:CSI06:1,2015-04-01T13:00:00Z,28.8667,-90.4833,24.0,11111222 
WAVCIS,ioos:station:WAVCIS:CSI06:1,2015-04-01T14:00:00Z,28.8667,-90.4833,24.4,11111222 
WAVCIS,ioos:station:WAVCIS:CSI06:1,2015-04-01T15:00:00Z,28.8667,-90.4833,24.5,11111222 
WAVCIS,ioos:station:WAVCIS:CSI06:1,2015-04-01T18:00:00Z,28.8667,-90.4833,25.0,11111222 
WAVCIS,ioos:station:WAVCIS:CSI06:1,2015-04-01T19:00:00Z,28.8667,-90.4833,25.2,11111222 
WAVCIS,ioos:station:WAVCIS:CSI06:1,2015-04-02T13:00:00Z,28.8667,-90.4833,26.3,11111222 
WAVCIS,ioos:station:WAVCIS:CSI06:1,2015-04-02T14:00:00Z,28.8667,-90.4833,26.3,11111222 
WAVCIS,ioos:station:WAVCIS:CSI06:1,2015-04-02T15:00:00Z,28.8667,-90.4833,26.1,11111222 
WAVCIS,ioos:station:WAVCIS:CSI06:1,2015-04-02T16:00:00Z,28.8667,-90.4833,26.1,11111222 
WAVCIS,ioos:station:WAVCIS:CSI06:1,2015-04-02T17:00:00Z,28.8667,-90.4833,26.3,11111222 
WAVCIS,ioos:station:WAVCIS:CSI06:1,2015-04-02T18:00:00Z,28.8667,-90.4833,26.5,11111222 
WAVCIS,ioos:station:WAVCIS:CSI06:1,2015-04-02T19:00:00Z,28.8667,-90.4833,26.5,11111222 
WAVCIS,ioos:station:WAVCIS:CSI06:1,2015-04-02T20:00:00Z,28.8667,-90.4833,26.7,11111222 
WAVCIS,ioos:station:WAVCIS:CSI06:1,2015-04-02T21:00:00Z,28.8667,-90.4833,26.9,11111222 
WAVCIS,ioos:station:WAVCIS:CSI06:1,2015-04-02T22:00:00Z,28.8667,-90.4833,27.0,11111222 
WAVCIS,ioos:station:WAVCIS:CSI06:1,2015-04-02T23:00:00Z,28.8667,-90.4833,27.0,11111222 
WAVCIS,ioos:station:WAVCIS:CSI06:1,2015-04-03T00:00:00Z,28.8667,-90.4833,26.8,11111222 
WAVCIS,ioos:station:WAVCIS:CSI06:1,2015-04-03T01:00:00Z,28.8667,-90.4833,26.6,11111222 
WAVCIS,ioos:station:WAVCIS:CSI06:1,2015-04-03T02:00:00Z,28.8667,-90.4833,26.5,11111222 
WAVCIS,ioos:station:WAVCIS:CSI06:1,2015-04-03T03:00:00Z,28.8667,-90.4833,26.5,11111222 
WAVCIS,ioos:station:WAVCIS:CSI06:1,2015-04-03T04:00:00Z,28.8667,-90.4833,26.5,11111222 
WAVCIS,ioos:station:WAVCIS:CSI06:1,2015-04-03T05:00:00Z,28.8667,-90.4833,26.3,11111222 
WAVCIS,ioos:station:WAVCIS:CSI06:1,2015-04-03T06:00:00Z,28.8667,-90.4833,26.1,11111222 
WAVCIS,ioos:station:WAVCIS:CSI06:1,2015-04-03T08:00:00Z,28.8667,-90.4833,25.8,11111222 
WAVCIS,ioos:station:WAVCIS:CSI06:1,2015-04-03T09:00:00Z,28.8667,-90.4833,25.9,11111222 
WAVCIS,ioos:station:WAVCIS:CSI06:1,2015-04-03T10:00:00Z,28.8667,-90.4833,26.2,11111222 
WAVCIS,ioos:station:WAVCIS:CSI06:1,2015-04-03T11:00:00Z,28.8667,-90.4833,26.1,11111222 
WAVCIS,ioos:station:WAVCIS:CSI06:1,2015-04-03T12:00:00Z,28.8667,-90.4833,25.8,11111222 
WAVCIS,ioos:station:WAVCIS:CSI06:1,2015-04-03T13:00:00Z,28.8667,-90.4833,26.1,11111222 
WAVCIS,ioos:station:WAVCIS:CSI06:1,2015-04-03T14:00:00Z,28.8667,-90.4833,26.1,11111222 
WAVCIS,ioos:station:WAVCIS:CSI06:1,2015-04-03T15:00:00Z,28.8667,-90.4833,26.4,11111222 
WAVCIS,ioos:station:WAVCIS:CSI06:1,2015-04-03T16:00:00Z,28.8667,-90.4833,26.4,11111222 
WAVCIS,ioos:station:WAVCIS:CSI06:1,2015-04-03T17:00:00Z,28.8667,-90.4833,26.6,11111222 
WAVCIS,ioos:station:WAVCIS:CSI06:1,2015-04-04T12:00:00Z,28.8667,-90.4833,25.5,11111222 
WAVCIS,ioos:station:WAVCIS:CSI06:1,2015-04-04T13:00:00Z,28.8667,-90.4833,25.8,11111222 
WAVCIS,ioos:station:WAVCIS:CSI06:1,2015-04-04T14:00:00Z,28.8667,-90.4833,26.3,11111222 
WAVCIS,ioos:station:WAVCIS:CSI06:1,2015-04-04T15:00:00Z,28.8667,-90.4833,21.2,11111222 
WAVCIS,ioos:station:WAVCIS:CSI06:1,2015-04-04T16:00:00Z,28.8667,-90.4833,20.8,11111222 
WAVCIS,ioos:station:WAVCIS:CSI06:1,2015-04-04T17:00:00Z,28.8667,-90.4833,20.4,11111222 
WAVCIS,ioos:station:WAVCIS:CSI06:1,2015-04-04T18:00:00Z,28.8667,-90.4833,20.9,11111222 
WAVCIS,ioos:station:WAVCIS:CSI06:1,2015-04-04T19:00:00Z,28.8667,-90.4833,21.0,11111222 
WAVCIS,ioos:station:WAVCIS:CSI06:1,2015-04-04T20:00:00Z,28.8667,-90.4833,21.3,11111222 
WAVCIS,ioos:station:WAVCIS:CSI06:1,2015-04-04T21:00:00Z,28.8667,-90.4833,21.1,11111222 
WAVCIS,ioos:station:WAVCIS:CSI06:1,2015-04-04T22:00:00Z,28.8667,-90.4833,22.1,11111222 
WAVCIS,ioos:station:WAVCIS:CSI06:1,2015-04-04T23:00:00Z,28.8667,-90.4833,22.2,11111222 
WAVCIS,ioos:station:WAVCIS:CSI06:1,2015-04-05T00:00:00Z,28.8667,-90.4833,22.4,11111222 
WAVCIS,ioos:station:WAVCIS:CSI06:1,2015-04-05T01:00:00Z,28.8667,-90.4833,22.6,11111222 
WAVCIS,ioos:station:WAVCIS:CSI06:1,2015-04-05T02:00:00Z,28.8667,-90.4833,22.6,11111222 
WAVCIS,ioos:station:WAVCIS:CSI06:1,2015-04-05T03:00:00Z,28.8667,-90.4833,22.9,11111222 
WAVCIS,ioos:station:WAVCIS:CSI06:1,2015-04-05T04:00:00Z,28.8667,-90.4833,23.1,11111222 
WAVCIS,ioos:station:WAVCIS:CSI06:1,2015-04-05T05:00:00Z,28.8667,-90.4833,23.3,11111222 
WAVCIS,ioos:station:WAVCIS:CSI06:1,2015-04-05T06:00:00Z,28.8667,-90.4833,23.5,11111222 
WAVCIS,ioos:station:WAVCIS:CSI06:1,2015-04-05T07:00:00Z,28.8667,-90.4833,23.4,11111222 
WAVCIS,ioos:station:WAVCIS:CSI06:1,2015-04-05T08:00:00Z,28.8667,-90.4833,23.2,11111222 
WAVCIS,ioos:station:WAVCIS:CSI06:1,2015-04-05T09:00:00Z,28.8667,-90.4833,23.2,11111222 
WAVCIS,ioos:station:WAVCIS:CSI06:1,2015-04-05T10:00:00Z,28.8667,-90.4833,23.0,11111222 
WAVCIS,ioos:station:WAVCIS:CSI06:1,2015-04-05T11:00:00Z,28.8667,-90.4833,22.9,11111222 
WAVCIS,ioos:station:WAVCIS:CSI06:1,2015-04-05T12:00:00Z,28.8667,-90.4833,22.9,11111222 
WAVCIS,ioos:station:WAVCIS:CSI06:1,2015-04-05T13:00:00Z,28.8667,-90.4833,23.0,11111222 
WAVCIS,ioos:station:WAVCIS:CSI06:1,2015-04-05T14:00:00Z,28.8667,-90.4833,23.2,11111222 
WAVCIS,ioos:station:WAVCIS:CSI06:1,2015-04-05T15:00:00Z,28.8667,-90.4833,23.6,11111222 
WAVCIS,ioos:station:WAVCIS:CSI06:1,2015-04-05T16:00:00Z,28.8667,-90.4833,23.8,11111222 
WAVCIS,ioos:station:WAVCIS:CSI06:1,2015-04-05T17:00:00Z,28.8667,-90.4833,24.0,11111222 
WAVCIS,ioos:station:WAVCIS:CSI06:1,2015-04-05T18:00:00Z,28.8667,-90.4833,24.2,11111222 
WAVCIS,ioos:station:WAVCIS:CSI06:1,2015-04-05T19:00:00Z,28.8667,-90.4833,24.7,11111222 
WAVCIS,ioos:station:WAVCIS:CSI06:1,2015-04-05T20:00:00Z,28.8667,-90.4833,24.8,11111222 
WAVCIS,ioos:station:WAVCIS:CSI06:1,2015-04-05T21:00:00Z,28.8667,-90.4833,24.9,11111222 
WAVCIS,ioos:station:WAVCIS:CSI06:1,2015-04-05T22:00:00Z,28.8667,-90.4833,25.1,11111222 
WAVCIS,ioos:station:WAVCIS:CSI06:1,2015-04-05T23:00:00Z,28.8667,-90.4833,25.0,11111222 
WAVCIS,ioos:station:WAVCIS:CSI06:1,2015-04-06T00:00:00Z,28.8667,-90.4833,25.0,11111222 
WAVCIS,ioos:station:WAVCIS:CSI06:1,2015-04-06T01:00:00Z,28.8667,-90.4833,25.0,11111222 
WAVCIS,ioos:station:WAVCIS:CSI06:1,2015-04-06T02:00:00Z,28.8667,-90.4833,24.9,11111222 
WAVCIS,ioos:station:WAVCIS:CSI06:1,2015-04-06T03:00:00Z,28.8667,-90.4833,24.8,11111222 
WAVCIS,ioos:station:WAVCIS:CSI06:1,2015-04-06T04:00:00Z,28.8667,-90.4833,24.5,11111222 
WAVCIS,ioos:station:WAVCIS:CSI06:1,2015-04-06T05:00:00Z,28.8667,-90.4833,24.3,11111222 
WAVCIS,ioos:station:WAVCIS:CSI06:1,2015-04-06T06:00:00Z,28.8667,-90.4833,24.8,11111222 
WAVCIS,ioos:station:WAVCIS:CSI06:1,2015-04-06T07:00:00Z,28.8667,-90.4833,24.6,11111222 
WAVCIS,ioos:station:WAVCIS:CSI06:1,2015-04-06T08:00:00Z,28.8667,-90.4833,24.5,11111222 
WAVCIS,ioos:station:WAVCIS:CSI06:1,2015-04-06T09:00:00Z,28.8667,-90.4833,24.3,11111222 
WAVCIS,ioos:station:WAVCIS:CSI06:1,2015-04-06T10:00:00Z,28.8667,-90.4833,24.7,11111222 
WAVCIS,ioos:station:WAVCIS:CSI06:1,2015-04-06T11:00:00Z,28.8667,-90.4833,25.1,11111222 
WAVCIS,ioos:station:WAVCIS:CSI06:1,2015-04-06T12:00:00Z,28.8667,-90.4833,25.1,11111222 
WAVCIS,ioos:station:WAVCIS:CSI06:1,2015-04-06T13:00:00Z,28.8667,-90.4833,25.4,11111222 
WAVCIS,ioos:station:WAVCIS:CSI06:1,2015-04-06T14:00:00Z,28.8667,-90.4833,25.9,11111222 
WAVCIS,ioos:station:WAVCIS:CSI06:1,2015-04-06T15:00:00Z,28.8667,-90.4833,25.8,11111222 
WAVCIS,ioos:station:WAVCIS:CSI06:1,2015-04-06T16:00:00Z,28.8667,-90.4833,26.2,11111222 
WAVCIS,ioos:station:WAVCIS:CSI06:1,2015-04-06T17:00:00Z,28.8667,-90.4833,26.4,11111222 
WAVCIS,ioos:station:WAVCIS:CSI06:1,2015-04-06T18:00:00Z,28.8667,-90.4833,26.7,11111222 
WAVCIS,ioos:station:WAVCIS:CSI06:1,2015-04-06T19:00:00Z,28.8667,-90.4833,26.7,11111222 
WAVCIS,ioos:station:WAVCIS:CSI06:1,2015-04-06T20:00:00Z,28.8667,-90.4833,26.7,11111222 
WAVCIS,ioos:station:WAVCIS:CSI06:1,2015-04-06T21:00:00Z,28.8667,-90.4833,26.7,11111222 
WAVCIS,ioos:station:WAVCIS:CSI06:1,2015-04-06T22:00:00Z,28.8667,-90.4833,26.5,11111222 
WAVCIS,ioos:station:WAVCIS:CSI06:1,2015-04-06T23:00:00Z,28.8667,-90.4833,26.5,11111222 
WAVCIS,ioos:station:WAVCIS:CSI06:1,2015-04-07T00:00:00Z,28.8667,-90.4833,26.5,11111222 
WAVCIS,ioos:station:WAVCIS:CSI06:1,2015-04-07T01:00:00Z,28.8667,-90.4833,26.1,11111222 
WAVCIS,ioos:station:WAVCIS:CSI06:1,2015-04-07T02:00:00Z,28.8667,-90.4833,25.8,11111222 
WAVCIS,ioos:station:WAVCIS:CSI06:1,2015-04-07T03:00:00Z,28.8667,-90.4833,26.1,11111222 
WAVCIS,ioos:station:WAVCIS:CSI06:1,2015-04-07T04:00:00Z,28.8667,-90.4833,26.1,11111222 
WAVCIS,ioos:station:WAVCIS:CSI06:1,2015-04-07T05:00:00Z,28.8667,-90.4833,26.0,11111222 
WAVCIS,ioos:station:WAVCIS:CSI06:1,2015-04-07T06:00:00Z,28.8667,-90.4833,26.2,11111222 
WAVCIS,ioos:station:WAVCIS:CSI06:1,2015-04-07T07:00:00Z,28.8667,-90.4833,26.2,11111222 
WAVCIS,ioos:station:WAVCIS:CSI06:1,2015-04-07T08:00:00Z,28.8667,-90.4833,26.2,11111222 
WAVCIS,ioos:station:WAVCIS:CSI06:1,2015-04-07T09:00:00Z,28.8667,-90.4833,26.0,11111222 
WAVCIS,ioos:station:WAVCIS:CSI06:1,2015-04-07T10:00:00Z,28.8667,-90.4833,25.9,11111222 
WAVCIS,ioos:station:WAVCIS:CSI06:1,2015-04-07T11:00:00Z,28.8667,-90.4833,25.7,11111222 
WAVCIS,ioos:station:WAVCIS:CSI06:1,2015-04-07T12:00:00Z,28.8667,-90.4833,25.6,11111222 
WAVCIS,ioos:station:WAVCIS:CSI06:1,2015-04-07T13:00:00Z,28.8667,-90.4833,25.8,11111222 
WAVCIS,ioos:station:WAVCIS:CSI06:1,2015-04-07T14:00:00Z,28.8667,-90.4833,26.1,11111222 
WAVCIS,ioos:station:WAVCIS:CSI06:1,2015-04-07T15:00:00Z,28.8667,-90.4833,26.4,11111222 
WAVCIS,ioos:station:WAVCIS:CSI06:1,2015-04-07T16:00:00Z,28.8667,-90.4833,26.3,11111222 
WAVCIS,ioos:station:WAVCIS:CSI06:1,2015-04-07T17:00:00Z,28.8667,-90.4833,27.1,11111222 
WAVCIS,ioos:station:WAVCIS:CSI06:1,2015-04-07T18:00:00Z,28.8667,-90.4833,27.0,11111222 
WAVCIS,ioos:station:WAVCIS:CSI06:1,2015-04-07T19:00:00Z,28.8667,-90.4833,26.6,11111222 
WAVCIS,ioos:station:WAVCIS:CSI06:1,2015-04-07T20:00:00Z,28.8667,-90.4833,27.1,11111222 
WAVCIS,ioos:station:WAVCIS:CSI06:1,2015-04-07T21:00:00Z,28.8667,-90.4833,26.9,11111222 
WAVCIS,ioos:station:WAVCIS:CSI06:1,2015-04-07T22:00:00Z,28.8667,-90.4833,26.6,11111222 
WAVCIS,ioos:station:WAVCIS:CSI06:1,2015-04-07T23:00:00Z,28.8667,-90.4833,26.5,11111222 
WAVCIS,ioos:station:WAVCIS:CSI06:1,2015-04-08T00:00:00Z,28.8667,-90.4833,26.4,11111222 
WAVCIS,ioos:station:WAVCIS:CSI06:1,2015-04-08T01:00:00Z,28.8667,-90.4833,26.3,11111222 
WAVCIS,ioos:station:WAVCIS:CSI06:1,2015-04-08T02:00:00Z,28.8667,-90.4833,26.1,11111222 
WAVCIS,ioos:station:WAVCIS:CSI06:1,2015-04-08T03:00:00Z,28.8667,-90.4833,26.1,11111222 
WAVCIS,ioos:station:WAVCIS:CSI06:1,2015-04-08T04:00:00Z,28.8667,-90.4833,26.2,11111222 
WAVCIS,ioos:station:WAVCIS:CSI06:1,2015-04-08T05:00:00Z,28.8667,-90.4833,26.1,11111222 
WAVCIS,ioos:station:WAVCIS:CSI06:1,2015-04-08T06:00:00Z,28.8667,-90.4833,26.2,11111222 
WAVCIS,ioos:station:WAVCIS:CSI06:1,2015-04-08T07:00:00Z,28.8667,-90.4833,26.3,11111222 
WAVCIS,ioos:station:WAVCIS:CSI06:1,2015-04-08T08:00:00Z,28.8667,-90.4833,26.5,11111222 
WAVCIS,ioos:station:WAVCIS:CSI06:1,2015-04-08T09:00:00Z,28.8667,-90.4833,26.5,11111222 
WAVCIS,ioos:station:WAVCIS:CSI06:1,2015-04-08T10:00:00Z,28.8667,-90.4833,26.4,11111222 
WAVCIS,ioos:station:WAVCIS:CSI06:1,2015-04-08T11:00:00Z,28.8667,-90.4833,26.2,11111222 
WAVCIS,ioos:station:WAVCIS:CSI06:1,2015-04-08T12:00:00Z,28.8667,-90.4833,26.3,11111222 
WAVCIS,ioos:station:WAVCIS:CSI06:1,2015-04-08T13:00:00Z,28.8667,-90.4833,26.7,11111222 
WAVCIS,ioos:station:WAVCIS:CSI06:1,2015-04-08T14:00:00Z,28.8667,-90.4833,26.8,11111222 
WAVCIS,ioos:station:WAVCIS:CSI06:1,2015-04-08T15:00:00Z,28.8667,-90.4833,26.8,11111222 
WAVCIS,ioos:station:WAVCIS:CSI06:1,2015-04-08T16:00:00Z,28.8667,-90.4833,26.8,11111222 
WAVCIS,ioos:station:WAVCIS:CSI06:1,2015-04-08T17:00:00Z,28.8667,-90.4833,26.9,11111222 
WAVCIS,ioos:station:WAVCIS:CSI06:1,2015-04-08T18:00:00Z,28.8667,-90.4833,26.8,11111222 
WAVCIS,ioos:station:WAVCIS:CSI06:1,2015-04-08T19:00:00Z,28.8667,-90.4833,25.7,11111222 
WAVCIS,ioos:station:WAVCIS:CSI06:1,2015-04-08T20:00:00Z,28.8667,-90.4833,26.7,11111222 
WAVCIS,ioos:station:WAVCIS:CSI06:1,2015-04-08T21:00:00Z,28.8667,-90.4833,27.0,11111222 
WAVCIS,ioos:station:WAVCIS:CSI06:1,2015-04-08T22:00:00Z,28.8667,-90.4833,26.9,11111222 
WAVCIS,ioos:station:WAVCIS:CSI06:1,2015-04-08T23:00:00Z,28.8667,-90.4833,26.2,11111222 
WAVCIS,ioos:station:WAVCIS:CSI06:1,2015-04-09T00:00:00Z,28.8667,-90.4833,25.7,11111222 
WAVCIS,ioos:station:WAVCIS:CSI06:1,2015-04-09T01:00:00Z,28.8667,-90.4833,25.9,11111222 
WAVCIS,ioos:station:WAVCIS:CSI06:1,2015-04-09T02:00:00Z,28.8667,-90.4833,26.2,11111222 
WAVCIS,ioos:station:WAVCIS:CSI06:1,2015-04-09T03:00:00Z,28.8667,-90.4833,26.4,11111222 
WAVCIS,ioos:station:WAVCIS:CSI06:1,2015-04-09T04:00:00Z,28.8667,-90.4833,26.2,11111222 
WAVCIS,ioos:station:WAVCIS:CSI06:1,2015-04-09T05:00:00Z,28.8667,-90.4833,25.8,11111222 
WAVCIS,ioos:station:WAVCIS:CSI06:1,2015-04-09T06:00:00Z,28.8667,-90.4833,26.2,11111222 
WAVCIS,ioos:station:WAVCIS:CSI06:1,2015-04-09T07:00:00Z,28.8667,-90.4833,26.7,11111222 
WAVCIS,ioos:station:WAVCIS:CSI06:1,2015-04-09T08:00:00Z,28.8667,-90.4833,27.0,11111222 
WAVCIS,ioos:station:WAVCIS:CSI06:1,2015-04-09T09:00:00Z,28.8667,-90.4833,26.9,11111222 
WAVCIS,ioos:station:WAVCIS:CSI06:1,2015-04-09T10:00:00Z,28.8667,-90.4833,26.9,11111222 
WAVCIS,ioos:station:WAVCIS:CSI06:1,2015-04-09T11:00:00Z,28.8667,-90.4833,26.9,11111222 
WAVCIS,ioos:station:WAVCIS:CSI06:1,2015-04-09T12:00:00Z,28.8667,-90.4833,27.0,11111222 
WAVCIS,ioos:station:WAVCIS:CSI06:1,2015-04-09T13:00:00Z,28.8667,-90.4833,27.1,11111222 
WAVCIS,ioos:station:WAVCIS:CSI06:1,2015-04-09T14:00:00Z,28.8667,-90.4833,27.1,11111222 
WAVCIS,ioos:station:WAVCIS:CSI06:1,2015-04-09T15:00:00Z,28.8667,-90.4833,27.2,11111222 
WAVCIS,ioos:station:WAVCIS:CSI06:1,2015-04-09T16:00:00Z,28.8667,-90.4833,27.2,11111222 
WAVCIS,ioos:station:WAVCIS:CSI06:1,2015-04-09T17:00:00Z,28.8667,-90.4833,27.3,11111222 
WAVCIS,ioos:station:WAVCIS:CSI06:1,2015-04-09T18:00:00Z,28.8667,-90.4833,27.6,11111222 
WAVCIS,ioos:station:WAVCIS:CSI06:1,2015-04-09T19:00:00Z,28.8667,-90.4833,27.8,11111222 
WAVCIS,ioos:station:WAVCIS:CSI06:1,2015-04-09T20:00:00Z,28.8667,-90.4833,27.7,11111222 
WAVCIS,ioos:station:WAVCIS:CSI06:1,2015-04-09T21:00:00Z,28.8667,-90.4833,27.6,11111222 
WAVCIS,ioos:station:WAVCIS:CSI06:1,2015-04-09T22:00:00Z,28.8667,-90.4833,27.6,11111222 
WAVCIS,ioos:station:WAVCIS:CSI06:1,2015-04-09T23:00:00Z,28.8667,-90.4833,27.7,11111222 
WAVCIS,ioos:station:WAVCIS:CSI06:1,2015-04-10T00:00:00Z,28.8667,-90.4833,27.5,11111222 
WAVCIS,ioos:station:WAVCIS:CSI06:1,2015-04-10T01:00:00Z,28.8667,-90.4833,27.5,11111222 
WAVCIS,ioos:station:WAVCIS:CSI06:1,2015-04-10T02:00:00Z,28.8667,-90.4833,27.2,11111222 
WAVCIS,ioos:station:WAVCIS:CSI06:1,2015-04-10T03:00:00Z,28.8667,-90.4833,27.1,11111222 
WAVCIS,ioos:station:WAVCIS:CSI06:1,2015-04-10T04:00:00Z,28.8667,-90.4833,27.0,11111222 
WAVCIS,ioos:station:WAVCIS:CSI06:1,2015-04-10T05:00:00Z,28.8667,-90.4833,27.1,11111222 
WAVCIS,ioos:station:WAVCIS:CSI06:1,2015-04-10T06:00:00Z,28.8667,-90.4833,26.8,11111222 
WAVCIS,ioos:station:WAVCIS:CSI06:1,2015-04-10T07:00:00Z,28.8667,-90.4833,26.6,11111222 
WAVCIS,ioos:station:WAVCIS:CSI06:1,2015-04-10T08:00:00Z,28.8667,-90.4833,26.4,11111222 
WAVCIS,ioos:station:WAVCIS:CSI06:1,2015-04-10T09:00:00Z,28.8667,-90.4833,26.2,11111222 
WAVCIS,ioos:station:WAVCIS:CSI06:1,2015-04-10T10:00:00Z,28.8667,-90.4833,26.2,11111222 
WAVCIS,ioos:station:WAVCIS:CSI06:1,2015-04-10T11:00:00Z,28.8667,-90.4833,26.2,11111222 
WAVCIS,ioos:station:WAVCIS:CSI06:1,2015-04-10T12:00:00Z,28.8667,-90.4833,26.2,11111222 
WAVCIS,ioos:station:WAVCIS:CSI06:1,2015-04-10T13:00:00Z,28.8667,-90.4833,26.6,11111222 
WAVCIS,ioos:station:WAVCIS:CSI06:1,2015-04-10T14:00:00Z,28.8667,-90.4833,28.4,11111222 
WAVCIS,ioos:station:WAVCIS:CSI06:1,2015-04-10T15:00:00Z,28.8667,-90.4833,27.1,11111222 
WAVCIS,ioos:station:WAVCIS:CSI06:1,2015-04-10T16:00:00Z,28.8667,-90.4833,27.5,11111222 
WAVCIS,ioos:station:WAVCIS:CSI06:1,2015-04-10T17:00:00Z,28.8667,-90.4833,27.4,11111222 
WAVCIS,ioos:station:WAVCIS:CSI06:1,2015-04-10T18:00:00Z,28.8667,-90.4833,27.5,11111222 
WAVCIS,ioos:station:WAVCIS:CSI06:1,2015-04-10T19:00:00Z,28.8667,-90.4833,27.7,11111222 
WAVCIS,ioos:station:WAVCIS:CSI06:1,2015-04-10T20:00:00Z,28.8667,-90.4833,27.7,11111222 
WAVCIS,ioos:station:WAVCIS:CSI06:1,2015-04-10T21:00:00Z,28.8667,-90.4833,27.9,11111222 
WAVCIS,ioos:station:WAVCIS:CSI06:1,2015-04-10T22:00:00Z,28.8667,-90.4833,28.2,11111222 
WAVCIS,ioos:station:WAVCIS:CSI06:1,2015-04-10T23:00:00Z,28.8667,-90.4833,27.7,11111222 
WAVCIS,ioos:station:WAVCIS:CSI06:1,2015-04-11T00:00:00Z,28.8667,-90.4833,27.4,11111222 
WAVCIS,ioos:station:WAVCIS:CSI06:1,2015-04-11T01:00:00Z,28.8667,-90.4833,27.4,11111222 
WAVCIS,ioos:station:WAVCIS:CSI06:1,2015-04-11T02:00:00Z,28.8667,-90.4833,27.3,11111222 
WAVCIS,ioos:station:WAVCIS:CSI06:1,2015-04-11T03:00:00Z,28.8667,-90.4833,26.8,11111222 
WAVCIS,ioos:station:WAVCIS:CSI06:1,2015-04-11T04:00:00Z,28.8667,-90.4833,26.6,11111222 
WAVCIS,ioos:station:WAVCIS:CSI06:1,2015-04-11T05:00:00Z,28.8667,-90.4833,26.0,11111222 
WAVCIS,ioos:station:WAVCIS:CSI06:1,2015-04-11T06:00:00Z,28.8667,-90.4833,25.9,11111222 
WAVCIS,ioos:station:WAVCIS:CSI06:1,2015-04-11T07:00:00Z,28.8667,-90.4833,25.4,11111222 
WAVCIS,ioos:station:WAVCIS:CSI06:1,2015-04-11T08:00:00Z,28.8667,-90.4833,25.4,11111222 
WAVCIS,ioos:station:WAVCIS:CSI06:1,2015-04-11T09:00:00Z,28.8667,-90.4833,25.2,11111222 
WAVCIS,ioos:station:WAVCIS:CSI06:1,2015-04-11T10:00:00Z,28.8667,-90.4833,25.4,11111222 
WAVCIS,ioos:station:WAVCIS:CSI06:1,2015-04-11T11:00:00Z,28.8667,-90.4833,25.1,11111222 
WAVCIS,ioos:station:WAVCIS:CSI06:1,2015-04-11T12:00:00Z,28.8667,-90.4833,26.1,11111222 
WAVCIS,ioos:station:WAVCIS:CSI06:1,2015-04-11T13:00:00Z,28.8667,-90.4833,24.8,11111222 
WAVCIS,ioos:station:WAVCIS:CSI06:1,2015-04-11T14:00:00Z,28.8667,-90.4833,24.7,11111222 
WAVCIS,ioos:station:WAVCIS:CSI06:1,2015-04-11T15:00:00Z,28.8667,-90.4833,24.5,11111222 
WAVCIS,ioos:station:WAVCIS:CSI06:1,2015-04-11T16:00:00Z,28.8667,-90.4833,24.9,11111222 
WAVCIS,ioos:station:WAVCIS:CSI06:1,2015-04-11T17:00:00Z,28.8667,-90.4833,24.7,11111222 
WAVCIS,ioos:station:WAVCIS:CSI06:1,2015-04-11T18:00:00Z,28.8667,-90.4833,24.7,11111222 
WAVCIS,ioos:station:WAVCIS:CSI06:1,2015-04-11T20:00:00Z,28.8667,-90.4833,24.7,11111222 
WAVCIS,ioos:station:WAVCIS:CSI06:1,2015-04-11T21:00:00Z,28.8667,-90.4833,24.6,11111222 
WAVCIS,ioos:station:WAVCIS:CSI06:1,2015-04-11T22:00:00Z,28.8667,-90.4833,24.6,11111222 
WAVCIS,ioos:station:WAVCIS:CSI06:1,2015-04-11T23:00:00Z,28.8667,-90.4833,25.0,11111222 
WAVCIS,ioos:station:WAVCIS:CSI06:1,2015-04-12T00:00:00Z,28.8667,-90.4833,25.2,11111222 
WAVCIS,ioos:station:WAVCIS:CSI06:1,2015-04-12T01:00:00Z,28.8667,-90.4833,25.1,11111222 
WAVCIS,ioos:station:WAVCIS:CSI06:1,2015-04-12T02:00:00Z,28.8667,-90.4833,24.8,11111222 
WAVCIS,ioos:station:WAVCIS:CSI06:1,2015-04-12T03:00:00Z,28.8667,-90.4833,24.6,11111222 
WAVCIS,ioos:station:WAVCIS:CSI06:1,2015-04-12T04:00:00Z,28.8667,-90.4833,24.5,11111222 
WAVCIS,ioos:station:WAVCIS:CSI06:1,2015-04-12T05:00:00Z,28.8667,-90.4833,24.2,11111222 
WAVCIS,ioos:station:WAVCIS:CSI06:1,2015-04-12T06:00:00Z,28.8667,-90.4833,24.1,11111222 
WAVCIS,ioos:station:WAVCIS:CSI06:1,2015-04-12T07:00:00Z,28.8667,-90.4833,24.1,11111222 
WAVCIS,ioos:station:WAVCIS:CSI06:1,2015-04-12T08:00:00Z,28.8667,-90.4833,24.2,11111222 
WAVCIS,ioos:station:WAVCIS:CSI06:1,2015-04-12T09:00:00Z,28.8667,-90.4833,24.2,11111222 
WAVCIS,ioos:station:WAVCIS:CSI06:1,2015-04-12T10:00:00Z,28.8667,-90.4833,24.1,11111222 
WAVCIS,ioos:station:WAVCIS:CSI06:1,2015-04-12T11:00:00Z,28.8667,-90.4833,24.0,11111222 
WAVCIS,ioos:station:WAVCIS:CSI06:1,2015-04-12T12:00:00Z,28.8667,-90.4833,24.2,11111222 
WAVCIS,ioos:station:WAVCIS:CSI06:1,2015-04-12T13:00:00Z,28.8667,-90.4833,24.5,11111222 
WAVCIS,ioos:station:WAVCIS:CSI06:1,2015-04-12T14:00:00Z,28.8667,-90.4833,24.8,11111222 
WAVCIS,ioos:station:WAVCIS:CSI06:1,2015-04-12T15:00:00Z,28.8667,-90.4833,24.8,11111222 
WAVCIS,ioos:station:WAVCIS:CSI06:1,2015-04-12T16:00:00Z,28.8667,-90.4833,25.4,11111222 
WAVCIS,ioos:station:WAVCIS:CSI06:1,2015-04-12T17:00:00Z,28.8667,-90.4833,25.6,11111222 
WAVCIS,ioos:station:WAVCIS:CSI06:1,2015-04-12T18:00:00Z,28.8667,-90.4833,25.8,11111222 
WAVCIS,ioos:station:WAVCIS:CSI06:1,2015-04-12T19:00:00Z,28.8667,-90.4833,26.0,11111222 
WAVCIS,ioos:station:WAVCIS:CSI06:1,2015-04-12T20:00:00Z,28.8667,-90.4833,26.1,11111222 
WAVCIS,ioos:station:WAVCIS:CSI06:1,2015-04-12T22:00:00Z,28.8667,-90.4833,25.7,11111222 
WAVCIS,ioos:station:WAVCIS:CSI06:1,2015-04-13T00:00:00Z,28.8667,-90.4833,23.8,11111222 
WAVCIS,ioos:station:WAVCIS:CSI06:1,2015-04-13T01:00:00Z,28.8667,-90.4833,24.3,11111222 
WAVCIS,ioos:station:WAVCIS:CSI06:1,2015-04-13T02:00:00Z,28.8667,-90.4833,25.5,11111222 
WAVCIS,ioos:station:WAVCIS:CSI06:1,2015-04-13T03:00:00Z,28.8667,-90.4833,25.4,11111222 
WAVCIS,ioos:station:WAVCIS:CSI06:1,2015-04-13T04:00:00Z,28.8667,-90.4833,25.4,11111222 
WAVCIS,ioos:station:WAVCIS:CSI06:1,2015-04-13T05:00:00Z,28.8667,-90.4833,25.9,11111222 
WAVCIS,ioos:station:WAVCIS:CSI06:1,2015-04-13T06:00:00Z,28.8667,-90.4833,26.0,11111222 
WAVCIS,ioos:station:WAVCIS:CSI06:1,2015-04-13T07:00:00Z,28.8667,-90.4833,25.9,11111222 
WAVCIS,ioos:station:WAVCIS:CSI06:1,2015-04-13T08:00:00Z,28.8667,-90.4833,25.8,11111222 
WAVCIS,ioos:station:WAVCIS:CSI06:1,2015-04-13T09:00:00Z,28.8667,-90.4833,25.8,11111222 
WAVCIS,ioos:station:WAVCIS:CSI06:1,2015-04-13T10:00:00Z,28.8667,-90.4833,25.7,11111222 
WAVCIS,ioos:station:WAVCIS:CSI06:1,2015-04-13T11:00:00Z,28.8667,-90.4833,25.9,11111222 
WAVCIS,ioos:station:WAVCIS:CSI06:1,2015-04-13T12:00:00Z,28.8667,-90.4833,26.5,11111222 
WAVCIS,ioos:station:WAVCIS:CSI06:1,2015-04-13T13:00:00Z,28.8667,-90.4833,26.8,11111222 
WAVCIS,ioos:station:WAVCIS:CSI06:1,2015-04-13T14:00:00Z,28.8667,-90.4833,27.4,11111222 
WAVCIS,ioos:station:WAVCIS:CSI06:1,2015-04-13T15:00:00Z,28.8667,-90.4833,22.5,11111222 
WAVCIS,ioos:station:WAVCIS:CSI06:1,2015-04-13T16:00:00Z,28.8667,-90.4833,24.7,11111222 
WAVCIS,ioos:station:WAVCIS:CSI06:1,2015-04-13T17:00:00Z,28.8667,-90.4833,25.3,11111222 
WAVCIS,ioos:station:WAVCIS:CSI06:1,2015-04-13T18:00:00Z,28.8667,-90.4833,25.9,11111222 
WAVCIS,ioos:station:WAVCIS:CSI06:1,2015-04-13T20:00:00Z,28.8667,-90.4833,25.3,11111222 
WAVCIS,ioos:station:WAVCIS:CSI06:1,2015-04-13T21:00:00Z,28.8667,-90.4833,25.5,11111222 
WAVCIS,ioos:station:WAVCIS:CSI06:1,2015-04-13T22:00:00Z,28.8667,-90.4833,25.8,11111222 
WAVCIS,ioos:station:WAVCIS:CSI06:1,2015-04-13T23:00:00Z,28.8667,-90.4833,26.2,11111222 
WAVCIS,ioos:station:WAVCIS:CSI06:1,2015-04-14T00:00:00Z,28.8667,-90.4833,26.4,11111222 
WAVCIS,ioos:station:WAVCIS:CSI06:1,2015-04-14T01:00:00Z,28.8667,-90.4833,26.5,11111222 